Weather in Sudogda

Russia / Vladimir Oblast     55°56′59″N   40°51′22″E
temp.,
°C
wind,
m/s
gust,
m/s
humid.,
%
clouds,
%
prec.,
mm/h
press.,
hPa
HPBL,
m
2 march, tue
tue200:00+1wsw51293100 0.0 1011660
03:00+1w51293100 0.0 1008672
06:00+1w51297100 0.1 1006699
09:00+1wnw51195100 0.2 1005811
12:00+1nw4108999 0.9 1005813
15:00+1nw5108892 1.1 1004986
18:00−1nw4109295 0.2 1005625
21:00−2nw4118997 0.3 1007914
3 march, wed
wed300:00−3nw51292100 0.1 1008866
03:00−6nw5138986 0.1 1010584
06:00−7nw5139197 0.1 1010675
09:00−6nw5128898 0.1 1012662
12:00−4nw598062 0.0 1012726
15:00−1wnw598763 0.1 10111003
18:00−2wnw41092100 0.2 1010746
21:00−3w41192100 0.2 1010619
4 march, thu
thu400:00−3w41192100 0.1 1008572
03:00−3wsw41191100 0.1 1005594
06:00−2sw51396100 0.6 1001795
09:000wsw61390100 1.6 999997
12:000wsw51093100 0.0 997920
15:000wsw51197100 0.3 997830
18:00−2nw51093100 2.1 996724
21:00−3nw31087100 2.4 998612
5 march, fri
fri500:00−7nw379662 0.0 1000190
03:00−9nw259663 0.0 1004127
06:00−12nw23950 0.0 100665
09:00−9wnw24910 0.0 1008192
12:00−5wnw238221 0.0 1009517
15:00−4wnw237838 0.0 1010730
18:00−8e018956 0.0 101021
21:00−8s129475 0.0 101229
6 march, sat
sat600:00−8ssw129798 0.3 101246
03:00−11wnw119890 0.4 101221
06:00−10wnw129786 0.1 101237
09:00−8nw249493 0.6 1011262
12:00−6nw3587100 0.1 1011582
15:00−6nw4684100 0.1 1011753
18:00−9wnw3990100 0.0 1011396
21:00−12wnw129666 0.1 101127